Regional Weather Roundup
Issued by NWS

Home | Current Version | Previous Version | Text Only | Print | Product List | Glossary On
Versions: 1 2 3 4 5 6 7 8 9 10 11 12 13 14 15 16 17 18 19 20 21 22 23 24 25 26 27 28 29 30 31 32 33 34 35 36 37 38 39 40 41 42 43 44 45 46 47 48 49 50
000
ASUS43 KTOP 050708
RWRKS

WEATHER ROUNDUP FOR KANSAS
NATIONAL WEATHER SERVICE GOODLAND KS
200 AM CDT SUN JUL 05 2015

NOTE:  "FAIR" INDICATES FEW OR NO CLOUDS BELOW 12,000 FEET WITH NO
SIGNIFICANT WEATHER AND/OR OBSTRUCTIONS TO VISIBILITY.

KSZ001>006-013>018-027>032-041>047-050800-
NORTHWEST KANSAS

CITY           SKY/WX    TMP DP  RH WIND       PRES   REMARKS
GOODLAND       CLOUDY    74  61  63 S18       29.90F
HAYS           PTCLDY    75  63  64 S14       29.92S
HILL CITY      MOCLDY    78  66  66 S12       29.89F
RUSSELL        CLEAR     75  66  73 S16       29.91S
$$

KSZ061>065-074>080-084>089-050800-
SOUTHWEST KANSAS

CITY           SKY/WX    TMP DP  RH WIND       PRES   REMARKS
DODGE CITY     CLOUDY    73  65  75 S14       29.95S
ELKHART          N/A     76  56  50 S12         N/A
GARDEN CITY    CLOUDY    74  66  76 E16       29.94R
GREAT BEND     PTCLDY    75  64  69 S13       29.94S
LIBERAL        MOCLDY    73  63  68 S9        29.96S
PRATT          PTCLDY    73  63  68 S10       29.97R
$$

KSZ066>073-081>083-090>101-050800-
SOUTHEAST KANSAS

CITY           SKY/WX    TMP DP  RH WIND       PRES   REMARKS
CHANUTE        CLEAR     71  67  87 E6        29.99S
COFFEYVILLE    CLEAR     71  68  90 CALM      29.97S
HUTCHINSON     CLEAR     75  66  73 SE12      29.96S
MEDICINE LODGE   N/A     74  66  76 SE5       29.95S
NEWTON         PTCLDY    72  63  73 SE8       29.99S
PARSONS        CLEAR     74  69  85 E3        29.99S
WICHITA INTL   PTCLDY    76  65  68 SE9       29.96S
WICHITA JABRA  PTCLDY    73  66  78 SE7       29.96F
WICHITA MCCONL CLEAR     75  66  73 SE8       29.97S
WINFIELD       MOCLDY    77  68  73 SE7       29.97F
$$

KSZ007>012-019>026-033>040-048>060-102>105-050800-
NORTHEAST KANSAS

CITY           SKY/WX    TMP DP  RH WIND       PRES   REMARKS
CONCORDIA      CLOUDY    73  63  70 SE13      29.93F
EMPORIA        CLEAR     70  66  87 SE8       29.98S
LAWRENCE       CLEAR     66  64  93 E6        29.99F FOG
MANHATTAN      MOCLDY    73  66  78 CALM      29.96S
MARYSVILLE     MOCLDY    70  64  83 SE8       29.96F
OLATHE IND     CLEAR     70  65  84 SE7       30.01F
OLATHE EXE     CLEAR     68  64  87 SE5       30.01S
SALINA         MOCLDY    78  64  61 SE13      29.94S
TOPEKA BILLARD CLEAR     70  65  84 E5        29.98F HAZE
TOPEKA FORBES  CLEAR     70  65  84 SE5       29.98F
$$


USA.gov is the U.S. government's official web portal to all federal, state and local government web resources and services.